Zanesville, OH

10:08 AM EST on December 16, 2017 (GMT -0500)
Zanesville Municipal

Weather History for KZZV - May, 2013

Change the Weather History Date:

Friday, May 17, 2013

  Actual Average Record
Temperature  
Mean Temperature 71 °F 61 °F  
Max Temperature 81 °F 72 °F 92 °F (1962)
Min Temperature 60 °F 49 °F 32 °F (1984)
Degree Days  
Heating Degree Days 0 6  
Month to date heating degree days 79 124  
Since 1 July heating degree days 5487 5481  
Cooling Degree Days 6 2  
Month to date cooling degree days 20 14  
Year to date cooling degree days 37 23  
Growing Degree Days 20 (Base 50)    
Moisture  
Dew Point 60 °F    
Average Humidity 73    
Maximum Humidity 100    
Minimum Humidity 45    
Precipitation  
Precipitation 0.00 in 0.13 in 2.79 in (1945)
Month to date precipitation 1.00 2.22  
Year to date precipitation 10.18 13.49  
Sea Level Pressure  
Sea Level Pressure 30.05 in    
Wind  
Wind Speed 2 mph (SSW)    
Max Wind Speed 10 mph    
Max Gust Speed 14 mph    
Visibility 6 miles    
Events Fog    
T = Trace of Precipitation, MM = Missing Value Source: NWS Daily Summary

Daily Weather History Graph

Daily Weather History Graph

Search for Another Location

Airport or City:

Trip Planner

Search our weather history database for the weather conditions in past years. The results will help you decide how hot, cold, wet, or windy it might be!

Date:

Astronomy

May. 17, 2013 Rise Set
Actual Time 6:10 AM EDT 8:37 PM EDT
Civil Twilight 5:39 AM EDT 9:08 PM EDT
Nautical Twilight 5:01 AM EDT 9:47 PM EDT
Astronomical Twilight 4:19 AM EDT 10:29 PM EDT
Moon 12:41 PM EDT (5/17) 1:30 AM EDT (5/17)
Length of Visible Light 15h 29m
Length of Day
14h 27m
Waxing Crescent, 45% of the Moon is Illuminated
May 17
Waxing Crescent
May 18
First Quarter
May 25
Full
May 31
Last Quarter
Jun 8
New

Hourly Weather History & Observations

Time (EDT) Temp. Heat Index Dew Point Humidity Pressure Visibility Wind Dir Wind Speed Gust Speed Precip Events Conditions
12:36 AM 59.0 °F - 57.2 °F 94% 30.01 in 5.0 mi Calm Calm - N/A   Scattered Clouds
12:44 AM 59.0 °F - 57.2 °F 94% 30.01 in 6.0 mi Calm Calm - N/A   Mostly Cloudy
12:53 AM 61.0 °F - 60.1 °F 97% 30.00 in 6.0 mi SW 3.5 mph - N/A   Overcast
1:45 AM 62.6 °F - 60.8 °F 94% 30.02 in 2.5 mi WSW 4.6 mph - N/A   Overcast
1:53 AM 62.1 °F - 61.0 °F 96% 30.00 in 1.8 mi WSW 3.5 mph - N/A   Overcast
2:05 AM 62.6 °F - 60.8 °F 94% 30.01 in 1.2 mi WSW 4.6 mph - N/A   Overcast
2:23 AM 62.6 °F - 60.8 °F 94% 30.01 in 0.5 mi SW 4.6 mph - N/A Fog Fog
2:53 AM 62.1 °F - 61.0 °F 96% 29.99 in 0.5 mi Calm Calm - N/A Fog Fog
3:27 AM 62.6 °F - 60.8 °F 94% 30.02 in 1.5 mi Calm Calm - N/A   Overcast
3:53 AM 62.1 °F - 61.0 °F 96% 30.01 in 2.0 mi Calm Calm - N/A   Overcast
4:29 AM 62.6 °F - 60.8 °F 94% 30.02 in 3.0 mi WSW 3.5 mph - N/A   Overcast
4:53 AM 63.0 °F - 61.0 °F 93% 30.01 in 4.0 mi Calm Calm - N/A   Overcast
5:53 AM 63.0 °F - 61.0 °F 93% 30.03 in 4.0 mi Calm Calm - N/A   Overcast
6:31 AM 62.6 °F - 60.8 °F 94% 30.07 in 4.0 mi Calm Calm - N/A   Overcast
6:44 AM 62.6 °F - 60.8 °F 94% 30.07 in 2.5 mi Calm Calm - N/A   Overcast
6:53 AM 63.0 °F - 61.0 °F 93% 30.06 in 2.0 mi Calm Calm - N/A   Overcast
7:09 AM 62.6 °F - 60.8 °F 94% 30.08 in 2.5 mi SE 3.5 mph - N/A   Overcast
7:28 AM 62.6 °F - 60.8 °F 94% 30.08 in 1.8 mi SE 3.5 mph - N/A   Overcast
7:35 AM 62.6 °F - 60.8 °F 94% 30.08 in 2.0 mi ESE 3.5 mph - N/A   Overcast
8:53 AM 64.0 °F - 59.0 °F 84% 30.09 in 7.0 mi SE 6.9 mph - N/A   Overcast
9:23 AM 66.2 °F - 60.8 °F 83% 30.10 in 8.0 mi South 8.1 mph - N/A   Scattered Clouds
9:31 AM 64.4 °F - 59.0 °F 83% 30.10 in 7.0 mi South 9.2 mph - N/A   Mostly Cloudy
9:53 AM 68.0 °F - 60.1 °F 76% 30.09 in 9.0 mi South 5.8 mph - N/A   Mostly Cloudy
10:53 AM 70.0 °F - 61.0 °F 73% 30.10 in 8.0 mi SSW 4.6 mph - N/A   Mostly Cloudy
11:12 AM 71.6 °F - 60.8 °F 69% 30.11 in 9.0 mi Variable 3.5 mph - N/A   Scattered Clouds
11:53 AM 72.0 °F - 61.0 °F 68% 30.10 in 8.0 mi West 3.5 mph - N/A   Mostly Cloudy
12:53 PM 73.9 °F - 61.0 °F 64% 30.08 in 10.0 mi Calm Calm - N/A   Clear
1:53 PM 77.0 °F - 60.1 °F 56% 30.07 in 10.0 mi SSE 3.5 mph - N/A   Clear
3:53 PM 80.1 °F 80.4 °F 57.0 °F 45% 30.04 in 10.0 mi Calm Calm - N/A   Clear
4:53 PM 79.0 °F - 55.9 °F 45% 30.03 in 10.0 mi South 3.5 mph - N/A   Clear
5:53 PM 78.1 °F - 55.0 °F 45% 30.03 in 10.0 mi South 3.5 mph - N/A   Clear
6:53 PM 78.1 °F - 55.9 °F 46% 30.02 in 10.0 mi Calm Calm - N/A   Clear
7:53 PM 75.9 °F - 59.0 °F 56% 30.04 in 10.0 mi Calm Calm - N/A   Clear
8:53 PM 71.1 °F - 59.0 °F 66% 30.05 in 10.0 mi Calm Calm - N/A   Clear
9:53 PM 68.0 °F - 60.1 °F 76% 30.08 in 10.0 mi Calm Calm - N/A   Clear
10:53 PM 64.9 °F - 59.0 °F 81% 30.08 in 10.0 mi Calm Calm - N/A   Clear
11:53 PM 63.0 °F - 59.0 °F 87% 30.07 in 10.0 mi Calm Calm - N/A   Clear